Voltar ao catálogo

TELSTAR 2

A-41

AtivoComunicaçõesHEO
NORAD 573·PAYLOAD·🇺🇸 United States

Lançado May 7, 1963 de Cape Canaveral Space Force Station

Loading…

Próximas Passagens (próximas 24 horas)

TLE

AtualizadoSource: Space-Track

Época: Sep 14, 2026, 09:47 UTC

1 00573U 63013A   26257.40792529  .00000006  00000-0  19113-3 0  9992
2 00573  42.7627 250.4244 4014225 259.5189 311.5757  6.39279932591850

Acompanhe TELSTAR 2 em tempo real com AllMySat

Download on the App Store